Weather History for Detroit Metro, MI

Change the Weather History Date:

Sunday, July 28, 2013

  Actual Average Record
Temperature  
Mean Temperature 61 °F 74 °F  
Max Temperature 70 °F 83 °F 100 °F (1930)
Min Temperature 52 °F 64 °F 48 °F (1978)
Degree Days  
Heating Degree Days 4 0  
Month to date heating degree days 4 0  
Since 1 June heating degree days 27 35  
Since 1 July heating degree days 4 0  
Cooling Degree Days 0 9  
Month to date cooling degree days 284 249  
Year to date cooling degree days 557 464  
Since 1 June cooling degree days 454 416  
Growing Degree Days 11 (Base 50)    
Moisture  
Dew Point 51 °F    
Average Humidity 74    
Maximum Humidity 96    
Minimum Humidity 52    
Precipitation  
Precipitation T in 0.12 in 2.16 in (2011)
Month to date precipitation 4.04 3.02  
Year to date precipitation 24.90 19.08  
Snow  
Snow 0.00 in 0.00 in 0.00 in ()
Month to date snowfall 0.0 0.0  
Since 1 June snowfall 0.0 0.0  
Since 1 July snowfall 0.0 0.0  
Snow Depth 0.00 in    
Sea Level Pressure  
Sea Level Pressure 29.92 in    
Wind  
Wind Speed 11 mph (SSW)    
Max Wind Speed 23 mph    
Max Gust Speed 26 mph    
Visibility 10 miles    
Events      
T = Trace of Precipitation, MM = Missing Value Source: NWS Daily Summary

Daily Weather History Graph

Daily Weather History Graph

Search for Another Location

Airport:

Trip Planner

Search our weather history database for the weather conditions in past years. The results will help you decide how hot, cold, wet, or windy it might be!

Date:

Astronomy

Jul. 28, 2013 Rise Set
Actual Time 6:22 AM EDT 8:56 PM EDT
Civil Twilight 5:50 AM EDT 9:28 PM EDT
Nautical Twilight 5:10 AM EDT 10:08 PM EDT
Astronomical Twilight 4:24 AM EDT 10:53 PM EDT
Moon No Moon Rise 1:12 PM EDT (7/28)
Length of Visible Light 15h 38m
Length of Day
14h 34m
Waning Gibbous, 61% of the Moon is Illuminated
Jul 28
Waning Gibbous
Jul 29
Last Quarter
Aug 6
New
Aug 14
First Quarter
Aug 20
Full

Hourly Weather History & Observations

Time (EDT) Temp. Dew Point Humidity Pressure Visibility Wind Dir Wind Speed Gust Speed Precip Events Conditions
12:53 AM 57.0 °F 50.0 °F 77% 29.88 in 10.0 mi WSW 9.2 mph - N/A   Scattered Clouds
1:53 AM 57.0 °F 51.1 °F 81% 29.86 in 10.0 mi SW 8.1 mph - N/A   Mostly Cloudy
2:53 AM 55.9 °F 50.0 °F 80% 29.86 in 10.0 mi SW 6.9 mph - N/A   Scattered Clouds
3:53 AM 55.0 °F 51.1 °F 86% 29.86 in 10.0 mi SSW 8.1 mph - N/A   Partly Cloudy
4:53 AM 53.1 °F 50.0 °F 89% 29.87 in 10.0 mi SSW 6.9 mph - N/A   Partly Cloudy
5:53 AM 52.0 °F 50.0 °F 93% 29.88 in 10.0 mi South 6.9 mph - N/A   Partly Cloudy
6:53 AM 53.1 °F 51.1 °F 93% 29.89 in 10.0 mi South 8.1 mph - N/A   Mostly Cloudy
7:53 AM 55.9 °F 51.1 °F 84% 29.90 in 10.0 mi SSW 12.7 mph - N/A   Mostly Cloudy
8:53 AM 59.0 °F 50.0 °F 72% 29.91 in 10.0 mi SSW 15.0 mph - N/A   Mostly Cloudy
9:53 AM 62.1 °F 51.1 °F 67% 29.91 in 10.0 mi SSW 12.7 mph - N/A   Mostly Cloudy
10:53 AM 63.0 °F 50.0 °F 63% 29.91 in 10.0 mi SSW 15.0 mph - N/A   Mostly Cloudy
11:53 AM 64.0 °F 50.0 °F 60% 29.90 in 10.0 mi SSW 16.1 mph 23.0 mph N/A   Overcast
12:53 PM 64.9 °F 48.9 °F 56% 29.90 in 10.0 mi SSW 16.1 mph - N/A   Mostly Cloudy
1:53 PM 64.0 °F 50.0 °F 60% 29.91 in 10.0 mi South 16.1 mph - N/A   Overcast
2:53 PM 68.0 °F 50.0 °F 52% 29.91 in 10.0 mi SW 17.3 mph 23.0 mph N/A   Mostly Cloudy
3:53 PM 66.0 °F 48.9 °F 54% 29.91 in 10.0 mi SW 15.0 mph - N/A   Mostly Cloudy
4:53 PM 61.0 °F 55.0 °F 81% 29.93 in 10.0 mi SW 12.7 mph - 0.00 in   Mostly Cloudy
5:53 PM 64.9 °F 51.1 °F 61% 29.94 in 10.0 mi SW 15.0 mph - N/A   Mostly Cloudy
6:53 PM 64.0 °F 51.1 °F 63% 29.94 in 10.0 mi SW 15.0 mph 21.9 mph N/A   Mostly Cloudy
7:53 PM 63.0 °F 50.0 °F 63% 29.96 in 10.0 mi WSW 10.4 mph - N/A   Mostly Cloudy
8:53 PM 62.1 °F 52.0 °F 70% 29.97 in 10.0 mi SSW 8.1 mph - N/A   Mostly Cloudy
9:53 PM 61.0 °F 53.1 °F 75% 29.99 in 10.0 mi SSW 6.9 mph - N/A   Mostly Cloudy
10:53 PM 60.1 °F 53.1 °F 78% 30.00 in 10.0 mi SSW 4.6 mph - N/A   Mostly Cloudy
11:53 PM 59.0 °F 52.0 °F 78% 30.01 in 10.0 mi SW 8.1 mph - N/A   Mostly Cloudy